Rice Lake, WI

5:36 AM CST on November 19, 2017 (GMT -0600)
Rice Lake Regional-Carl's

Weather History for KRPD - March, 2012

Change the Weather History Date:

Friday, March 2, 2012

  Actual Average Record
Temperature  
Mean Temperature 32 °F -  
Max Temperature 35 °F 27 °F 42 °F (2001)
Min Temperature 30 °F 12 °F -16 °F (2014)
Degree Days  
Heating Degree Days 32    
Moisture  
Dew Point 29 °F    
Average Humidity 88    
Maximum Humidity 100    
Minimum Humidity 69    
Precipitation  
Precipitation 0.02 in - - ()
Sea Level Pressure  
Sea Level Pressure 29.65 in    
Wind  
Wind Speed 2 mph (SSW)    
Max Wind Speed 16 mph    
Max Gust Speed 20 mph    
Visibility 6 miles    
Events Snow    
Averages and records for this station are not official NWS values.
T = Trace of Precipitation, MM = Missing Value Source: NWS Daily Summary

Daily Weather History Graph

Daily Weather History Graph

Search for Another Location

Airport or City:

Trip Planner

Search our weather history database for the weather conditions in past years. The results will help you decide how hot, cold, wet, or windy it might be!

Date:

Astronomy

Mar. 02, 2012 Rise Set
Actual Time 6:42 AM CST 5:56 PM CST
Civil Twilight 6:13 AM CST 6:25 PM CST
Nautical Twilight 5:38 AM CST 7:00 PM CST
Astronomical Twilight 5:04 AM CST 7:34 PM CST
Moon 11:55 AM CST (3/2) 2:46 AM CST (3/2)
Length of Visible Light 12h 12m
Length of Day
11h 13m
Waxing Gibbous, 66% of the Moon is Illuminated
Mar 2
Waxing Gibbous
Mar 8
Full
Mar 14
Last Quarter
Mar 22
New
Mar 30
First Quarter

Hourly Weather History & Observations

Time (CST) Temp. Windchill Dew Point Humidity Pressure Visibility Wind Dir Wind Speed Gust Speed Precip Events Conditions
12:15 AM 32.0 °F - 30.2 °F 93% 29.77 in 0.8 mi Calm Calm - 0.01 in Snow Light Snow
12:35 AM 32.0 °F - 30.2 °F 93% 29.76 in 1.0 mi Calm Calm - 0.01 in Snow Light Snow
12:55 AM 32.0 °F - 30.2 °F 93% 29.76 in 1.0 mi Calm Calm - 0.02 in Snow Light Snow
1:15 AM 32.0 °F - 30.2 °F 93% 29.75 in 2.0 mi Calm Calm - N/A Snow Light Snow
1:35 AM 32.0 °F - 30.2 °F 93% 29.74 in 2.5 mi Calm Calm - N/A   Overcast
1:55 AM 32.0 °F - 30.2 °F 93% 29.74 in 2.0 mi Calm Calm - N/A Snow Light Snow
2:15 AM 32.0 °F - 30.2 °F 93% 29.74 in 2.5 mi Calm Calm - N/A   Overcast
2:35 AM 32.0 °F 28.7 °F 30.2 °F 93% 29.74 in 2.5 mi SE 3.5 mph - N/A Snow Light Snow
2:55 AM 32.0 °F 28.7 °F 30.2 °F 93% 29.73 in 3.0 mi SE 3.5 mph - N/A   Overcast
3:15 AM 32.0 °F 28.7 °F 30.2 °F 93% 29.72 in 2.5 mi SSE 3.5 mph - N/A   Overcast
3:35 AM 32.0 °F 28.7 °F 30.2 °F 93% 29.72 in 2.5 mi SE 3.5 mph - N/A   Overcast
3:55 AM 32.0 °F 28.7 °F 30.2 °F 93% 29.73 in 2.5 mi South 3.5 mph - N/A   Overcast
4:15 AM 32.0 °F 27.5 °F 32.0 °F 100% 29.73 in 2.0 mi SSE 4.6 mph - N/A   Overcast
4:35 AM 32.0 °F 28.7 °F 32.0 °F 100% 29.71 in 1.5 mi SSE 3.5 mph - N/A   Overcast
4:55 AM 32.0 °F - 32.0 °F 100% 29.70 in 1.8 mi Calm Calm - N/A   Overcast
5:15 AM 32.0 °F - 32.0 °F 100% 29.69 in 1.8 mi Calm Calm - N/A   Overcast
5:35 AM 32.0 °F - 32.0 °F 100% 29.70 in 2.0 mi Calm Calm - N/A   Overcast
5:55 AM 32.0 °F - 32.0 °F 100% 29.69 in 2.5 mi Calm Calm - N/A   Overcast
6:15 AM 32.0 °F - 32.0 °F 100% 29.69 in 2.5 mi Calm Calm - N/A   Overcast
6:35 AM 32.0 °F - 32.0 °F 100% 29.69 in 2.0 mi Calm Calm - N/A   Overcast
7:15 AM 32.0 °F 28.7 °F 32.0 °F 100% 29.70 in 1.8 mi SSE 3.5 mph - N/A   Overcast
7:35 AM 32.0 °F - 32.0 °F 100% 29.69 in 1.5 mi Calm Calm - N/A   Overcast
7:55 AM 32.0 °F - 32.0 °F 100% 29.68 in 1.8 mi Calm Calm - N/A   Overcast
8:15 AM 32.0 °F - 30.2 °F 93% 29.68 in 1.2 mi Calm Calm - N/A   Overcast
8:35 AM 30.2 °F 26.7 °F 30.2 °F 100% 29.68 in 1.5 mi SE 3.5 mph - N/A   Overcast
8:55 AM 32.0 °F - 30.2 °F 93% 29.68 in 1.5 mi Calm Calm - N/A   Overcast
9:15 AM 32.0 °F - 32.0 °F 100% 29.68 in 4.0 mi Calm Calm - N/A   Overcast
9:35 AM 32.0 °F - 32.0 °F 100% 29.69 in 5.0 mi Calm Calm - N/A   Overcast
9:55 AM 32.0 °F 28.7 °F 30.2 °F 93% 29.69 in 5.0 mi SSW 3.5 mph - N/A   Overcast
10:15 AM 32.0 °F 28.7 °F 30.2 °F 93% 29.68 in 4.0 mi South 3.5 mph - N/A   Overcast
10:35 AM 32.0 °F - 30.2 °F 93% 29.67 in 4.0 mi Calm Calm - N/A   Mostly Cloudy
10:55 AM 32.0 °F - 30.2 °F 93% 29.67 in 5.0 mi Calm Calm - N/A   Scattered Clouds
11:15 AM 32.0 °F - 30.2 °F 93% 29.66 in 7.0 mi Calm Calm - N/A   Clear
11:35 AM 32.0 °F - 30.2 °F 93% 29.66 in 7.0 mi Calm Calm - N/A   Mostly Cloudy
11:55 AM 33.8 °F - 28.4 °F 81% 29.66 in 7.0 mi Calm Calm - N/A   Overcast
12:15 PM 33.8 °F - 28.4 °F 81% 29.64 in 10.0 mi Calm Calm - N/A   Scattered Clouds
12:35 PM 33.8 °F - 28.4 °F 81% 29.62 in 10.0 mi Calm Calm - N/A   Clear
12:55 PM 33.8 °F - 28.4 °F 81% 29.61 in 10.0 mi Calm Calm - N/A   Clear
1:15 PM 33.8 °F - 28.4 °F 81% 29.60 in 10.0 mi Calm Calm - N/A   Clear
1:35 PM 33.8 °F - 28.4 °F 81% 29.59 in 10.0 mi Calm Calm - N/A   Clear
1:55 PM 33.8 °F - 28.4 °F 81% 29.58 in 10.0 mi Calm Calm - N/A   Scattered Clouds
2:15 PM 35.6 °F - 28.4 °F 75% 29.58 in 10.0 mi Calm Calm - N/A   Clear
2:55 PM 33.8 °F - 28.4 °F 81% 29.57 in 10.0 mi Calm Calm - N/A   Clear
3:15 PM 33.8 °F - 28.4 °F 81% 29.56 in 10.0 mi Calm Calm - N/A   Clear
3:35 PM 33.8 °F - 28.4 °F 81% 29.56 in 10.0 mi Calm Calm - N/A   Clear
3:55 PM 33.8 °F - 28.4 °F 81% 29.56 in 10.0 mi Calm Calm - N/A   Scattered Clouds
4:15 PM 33.8 °F 30.8 °F 28.4 °F 81% 29.56 in 10.0 mi West 3.5 mph - N/A   Overcast
4:35 PM 33.8 °F 27.7 °F 28.4 °F 81% 29.56 in 10.0 mi WSW 6.9 mph - N/A   Overcast
4:55 PM 33.8 °F 28.6 °F 28.4 °F 81% 29.56 in 10.0 mi WSW 5.8 mph - N/A   Mostly Cloudy
5:15 PM 33.8 °F 30.8 °F 28.4 °F 81% 29.56 in 10.0 mi WSW 3.5 mph - N/A   Scattered Clouds
5:35 PM 33.8 °F 30.8 °F 28.4 °F 81% 29.56 in 10.0 mi SW 3.5 mph - N/A   Scattered Clouds
5:55 PM 33.8 °F 29.6 °F 28.4 °F 81% 29.56 in 10.0 mi SW 4.6 mph - N/A   Overcast
6:15 PM 33.8 °F 28.6 °F 28.4 °F 81% 29.56 in 10.0 mi SSW 5.8 mph - N/A   Overcast
6:35 PM 32.0 °F 23.0 °F 26.6 °F 80% 29.56 in 10.0 mi WSW 11.5 mph 19.6 mph N/A   Overcast
6:55 PM 32.0 °F 23.0 °F 26.6 °F 80% 29.57 in 10.0 mi WSW 11.5 mph - N/A   Overcast
7:15 PM 32.0 °F 21.6 °F 23.0 °F 69% 29.57 in 10.0 mi West 15.0 mph - N/A   Overcast
7:35 PM 30.2 °F 20.8 °F 23.0 °F 75% 29.57 in 10.0 mi West 11.5 mph - N/A   Overcast
7:55 PM 30.2 °F 18.9 °F 21.2 °F 69% 29.57 in 10.0 mi West 16.1 mph - N/A   Scattered Clouds
8:15 PM 30.2 °F 20.8 °F 21.2 °F 69% 29.57 in 10.0 mi West 11.5 mph 17.3 mph N/A   Clear
8:35 PM 30.2 °F 20.8 °F 21.2 °F 69% 29.57 in 10.0 mi West 11.5 mph - N/A   Clear
8:55 PM 28.4 °F 19.7 °F 21.2 °F 74% 29.56 in 10.0 mi West 9.2 mph - N/A   Clear
9:15 PM 28.4 °F 20.4 °F 21.2 °F 74% 29.56 in 10.0 mi West 8.1 mph - N/A   Mostly Cloudy
9:35 PM 28.4 °F 21.2 °F 21.2 °F 74% 29.56 in 10.0 mi West 6.9 mph - N/A   Overcast
9:55 PM 28.4 °F 20.4 °F 21.2 °F 74% 29.56 in 10.0 mi WSW 8.1 mph - N/A   Overcast
10:15 PM 28.4 °F 23.3 °F 23.0 °F 80% 29.56 in 10.0 mi WSW 4.6 mph - N/A   Overcast
10:35 PM 28.4 °F 21.2 °F 23.0 °F 80% 29.55 in 10.0 mi WSW 6.9 mph - N/A   Overcast
10:55 PM 28.4 °F 21.2 °F 23.0 °F 80% 29.54 in 10.0 mi WSW 6.9 mph - N/A   Overcast
11:15 PM 28.4 °F 22.2 °F 23.0 °F 80% 29.54 in 7.0 mi WSW 5.8 mph - N/A Snow Light Snow
11:35 PM 28.4 °F 22.2 °F 23.0 °F 80% 29.54 in 5.0 mi West 5.8 mph - N/A Snow Light Snow
11:55 PM 28.4 °F 23.3 °F 23.0 °F 80% 29.53 in 5.0 mi West 4.6 mph - N/A Snow Light Snow